Weather History for Owensboro, KY

Change the Weather History Date:

Saturday, March 16, 2013

  Actual Average Record
Temperature  
Mean Temperature 56 °F -  
Max Temperature 68 °F 58 °F 85 °F (1945)
Min Temperature 43 °F 36 °F 18 °F (1970)
Degree Days  
Heating Degree Days 10    
Growing Degree Days 6 (Base 50)    
Moisture  
Dew Point 46 °F    
Average Humidity 65    
Maximum Humidity 82    
Minimum Humidity 51    
Precipitation  
Precipitation 0.00 in - - ()
Sea Level Pressure  
Sea Level Pressure 29.83 in    
Wind  
Wind Speed 16 mph (West)    
Max Wind Speed 21 mph    
Max Gust Speed 28 mph    
Visibility 9 miles    
Events      
Averages and records for this station are not official NWS values.
T = Trace of Precipitation, MM = Missing Value Source: NWS Daily Summary

Daily Weather History Graph

Daily Weather History Graph

Search for Another Location

Airport:

Trip Planner

Search our weather history database for the weather conditions in past years. The results will help you decide how hot, cold, wet, or windy it might be!

Date:

Astronomy

Mar. 16, 2013 Rise Set
Actual Time 6:57 AM CDT 6:57 PM CDT
Civil Twilight 6:31 AM CDT 7:23 PM CDT
Nautical Twilight 6:01 AM CDT 7:53 PM CDT
Astronomical Twilight 5:30 AM CDT 8:24 PM CDT
Moon 9:32 AM CDT (3/16) 11:59 PM CDT (3/16)
Length of Visible Light 12h 51m
Length of Day
11h 59m
Waxing Crescent, 23% of the Moon is Illuminated
Mar 16
Waxing Crescent
Mar 19
First Quarter
Mar 27
Full
Apr 2
Last Quarter
Apr 10
New

Hourly Weather History & Observations

Time (CDT) Temp. Windchill Dew Point Humidity Pressure Visibility Wind Dir Wind Speed Gust Speed Precip Events Conditions
12:56 AM 63.9 °F - 50.9 °F 63% 29.71 in 10.0 mi SW 20.7 mph - N/A   Partly Cloudy
1:56 AM 63.9 °F - 50.0 °F 61% 29.71 in 10.0 mi WSW 20.7 mph - N/A   Clear
2:56 AM 63.0 °F - 50.0 °F 63% 29.70 in 10.0 mi SW 17.3 mph - N/A   Clear
3:56 AM 63.0 °F - 50.0 °F 63% 29.69 in 10.0 mi WSW 15.0 mph 23.0 mph N/A   Clear
4:56 AM 61.9 °F - 48.9 °F 62% 29.69 in 10.0 mi SW 16.1 mph - N/A   Clear
5:56 AM 59.9 °F - 48.9 °F 67% 29.70 in 10.0 mi WSW 15.0 mph - N/A   Clear
6:56 AM 59.0 °F - 48.9 °F 69% 29.72 in 10.0 mi WSW 11.5 mph - N/A   Clear
7:56 AM 61.9 °F - 48.9 °F 62% 29.73 in 10.0 mi SW 15.0 mph 20.7 mph N/A   Clear
8:56 AM 65.8 °F - 50.0 °F 57% 29.74 in 10.0 mi WSW 18.4 mph - N/A   Clear
9:56 AM 68.0 °F - 50.0 °F 52% 29.75 in 10.0 mi West 18.4 mph 27.6 mph N/A   Clear
10:56 AM 68.9 °F - 50.0 °F 51% 29.78 in 10.0 mi West 17.3 mph 27.6 mph N/A   Clear
11:56 AM 68.9 °F - 50.9 °F 53% 29.81 in 10.0 mi West 18.4 mph 25.3 mph N/A   Partly Cloudy
12:56 PM 65.8 °F - 48.9 °F 54% 29.84 in 10.0 mi NNW 18.4 mph 25.3 mph N/A   Clear
1:56 PM 63.0 °F - 47.8 °F 58% 29.86 in 10.0 mi West 20.7 mph 25.3 mph N/A   Clear
2:56 PM 56.8 °F - 45.0 °F 64% 29.88 in 7.0 mi West 17.3 mph - N/A   Clear
3:56 PM 54.9 °F - 43.9 °F 66% 29.90 in 5.0 mi WNW 15.0 mph 25.3 mph N/A   Haze
4:56 PM 54.9 °F - 41.9 °F 62% 29.90 in 6.0 mi NNW 13.8 mph 20.7 mph N/A   Haze
5:56 PM 52.9 °F - 41.0 °F 64% 29.93 in 6.0 mi WNW 11.5 mph - N/A   Haze
6:56 PM 48.9 °F - 41.0 °F 74% 29.97 in 6.0 mi WNW 9.2 mph 16.1 mph N/A   Haze
7:56 PM 46.9 °F - 39.9 °F 77% 29.98 in 8.0 mi WNW 12.7 mph - N/A   Haze
8:56 PM 45.9 °F 40.8 °F 38.8 °F 76% 29.99 in 10.0 mi North 10.4 mph - N/A   Clear
9:56 PM 43.9 °F 39.3 °F 37.9 °F 80% 30.00 in 9.0 mi NNE 8.1 mph - N/A   Overcast
10:56 PM 43.0 °F 38.8 °F 37.9 °F 82% 30.00 in 8.0 mi Variable 6.9 mph - N/A   Clear
11:56 PM 43.0 °F 37.7 °F 37.9 °F 82% 29.99 in 7.0 mi North 9.2 mph - N/A   Scattered Clouds